#timestamp,LO_Frequency,Hit,StdDev 
1507496415.4,286047002.5,N
1507496435.3,286047001.0,N
1507496455.1,286047001.2,N
1507496456.0,286047001.2,N
1507496475.8,286046998.3,N
1507496495.7,286046999.4,N
1507496515.5,286046999.5,N
1507496535.4,286046997.1,N
1507496555.2,286046997.5,N
1507496575.0,286046997.3,N
1507496575.9,286046997.3,N
1507496595.8,286046997.4,N
1507496615.6,286046997.2,N
1507496635.4,286046996.5,N
1507496655.3,286046997.1,N
1507496675.1,286046999.6,N
1507496695.9,286046999.3,N
1507496715.7,286046998.1,N
1507496735.5,286046998.8,N
1507496755.4,286047001.2,N
1507496775.2,286047000.7,N
1507496795.0,286047000.4,N
1507496795.9,286047000.4,N
1507496815.8,286047001.1,N
1507496835.6,286047002.2,N
1507496855.5,286047000.3,N
1507496875.3,286047001.0,N
1507496895.1,286047002.2,N
1507496915.9,286047002.6,N
1507496935.7,286047001.1,N
1507496955.6,286046998.7,N
1507496975.4,286046997.0,N
1507496995.2,286046999.3,N
1507497015.1,286046997.3,N
1507497016.0,286046997.3,N
1507497035.8,286046997.1,N
1507497055.7,286046997.5,N
1507497075.5,286046996.7,N
1507497095.3,286046999.6,N
1507497115.2,286046999.2,N
1507497135.0,286046997.9,N
1507497135.9,286046997.9,N
1507497155.8,286046996.8,N
1507497175.6,286046997.6,N
1507497195.4,286046997.4,N
1507497215.3,286046997.7,N
1507497235.1,286046994.9,N
1507497255.8,286046997.8,N
1507497275.7,286046997.5,N
1507497295.5,286046996.8,N
1507497315.4,286046997.5,N
1507497335.2,286046997.0,N
1507497355.0,286046997.0,N
1507497355.9,286046997.0,N
1507497375.8,286046999.5,N
1507497395.6,286046999.0,N
1507497415.4,286046998.6,N
1507497435.3,286046999.1,N
1507497455.1,286046999.5,N
1507497475.9,286046998.8,N
1507497495.7,286046999.4,N
1507497515.5,286046999.4,N
1507497535.4,286046998.7,N
1507497555.2,286046999.4,N
1507497575.0,286046999.4,N
1507497576.0,286046999.4,N
1507497595.8,286046999.0,N
1507497615.6,286046998.9,N
1507497635.5,286046996.9,N
1507497655.3,286046999.0,N
1507497675.1,286046999.3,N
1507497695.9,286046998.2,N
1507497715.7,286046999.3,N
1507497735.6,286046999.5,N
1507497755.4,286046999.4,N
1507497775.2,286046999.5,N
1507497795.1,286046997.9,N
1507497796.0,286046997.9,N
1507497815.8,286046995.1,Y
1507497835.7,286046999.5,P
1507497855.5,286046999.2,N
1507497875.3,286046999.1,N
1507497895.2,286046999.4,N
1507497915.9,286046998.5,Y
1507497935.7,286047000.6,P
1507497955.6,286047000.2,N
1507497975.4,286047001.0,N
1507497995.3,286047000.1,N
1507498015.1,286047001.2,N
1507498016.0,286047001.2,N
1507498035.8,286047000.7,N
1507498055.7,286047000.3,N
1507498075.5,286046998.4,N
1507498095.3,286047000.5,N
1507498115.2,286047002.0,N
1507498135.0,286047003.9,Y
1507498135.9,286047003.9,P
1507498155.8,286047004.3,N
1507498175.6,286047001.6,N
1507498195.4,286047001.3,N
1507498215.3,286047004.0,N
1507498235.1,286047001.6,N
1507498255.8,286047002.6,N
1507498275.7,286047002.3,N
1507498295.5,286047002.7,N
1507498315.4,286046998.8,N
1507498335.2,286046998.1,N
1507498355.0,286046998.9,N
1507498355.9,286046998.9,N
1507498375.8,286047000.9,N
1507498395.6,286046999.9,N
1507498415.5,286047002.7,N
1507498435.3,286047002.3,N
1507498455.1,286046999.7,N
1507498475.9,286047000.7,N
1507498495.7,286047000.8,N
1507498515.5,286046999.9,N
1507498535.4,286046999.8,N
1507498555.2,286047002.5,N
1507498575.1,286046999.9,N
1507498576.0,286046999.9,N
1507498595.8,286047000.2,N
1507498615.6,286047001.3,N
1507498635.5,286047002.6,N
1507498655.3,286047002.7,N
1507498675.1,286047000.2,N
1507498695.9,286046999.7,N
1507498715.7,286046999.8,N
1507498735.6,286047000.5,N
1507498755.4,286046999.9,N
1507498775.2,286047002.3,N
1507498795.1,286047002.3,N
1507498796.0,286047002.3,N
1507498815.8,286047004.3,Y
1507498835.7,286047002.8,P
1507498855.5,286046999.8,N
1507498875.3,286047000.2,N
1507498895.2,286047000.4,N
1507498915.0,286046999.9,N
1507498915.9,286046999.9,N
1507498935.7,286047000.4,N
1507498955.6,286047011.9,Y
1507498975.4,286047000.4,P
1507498995.3,286046998.5,P
1507499015.1,286047000.7,N
1507499035.8,286047000.0,N
1507499055.7,286047000.8,N
1507499075.5,286047001.0,N
1507499095.4,286047000.6,N
1507499115.2,286047000.6,N
1507499135.0,286046998.1,N
1507499135.9,286046998.1,N
1507499155.8,286046998.1,N
1507499175.6,286047000.3,N
1507499195.4,286046999.9,N
1507499215.3,286046999.8,N
1507499235.1,286047000.8,N
1507499255.9,286047000.9,N
1507499275.7,286047001.0,N
1507499295.5,286047000.2,N
1507499315.4,286046999.8,N
1507499335.2,286046999.7,N
1507499355.0,286047002.0,N
1507499355.9,286047002.0,N
1507499375.8,286047001.6,N
1507499395.6,286047001.4,N
1507499415.5,286047002.1,N
1507499435.3,286047004.4,Y
1507499455.1,286047001.4,P
1507499475.9,286047003.7,P
1507499495.7,286047004.3,P
1507499515.5,286047005.7,Y
1507499535.4,286047002.8,P
1507499555.2,286047000.1,N
1507499575.1,286047000.6,N
1507499576.0,286047000.6,N
1507499595.8,286047000.8,N
1507499615.6,286046999.3,N
1507499635.5,286046998.1,N
1507499655.3,286046999.3,N
1507499675.1,286046998.8,N
1507499695.9,286046998.8,N
1507499715.7,286046999.5,N
1507499735.6,286046998.4,N
1507499755.4,286047000.7,N
1507499775.2,286046999.0,N
1507499795.1,286046998.6,N
1507499796.0,286046998.6,N
1507499815.8,286046998.2,N
1507499835.7,286046999.9,N
1507499855.5,286047000.6,N
1507499875.3,286047000.2,N
1507499895.2,286047000.1,N
1507499915.0,286046998.2,N
1507499915.9,286046998.2,N
1507499935.7,286046999.6,N
1507499955.6,286046997.2,N
1507499975.4,286046995.4,Y
1507499995.3,286046999.4,P
